Location: Baumgarten
(49.0970°N, 12.7493°E)
Time: 19:12:39
(UTC+00:00)

Cosmos 1980 - Pass Details

Date: 05 July 2020
Orbit: 839 x 847 km, 71.0° (Epoch: 12 August)

Event Time Altitude Azimuth Distance (km) Brightness Sun altitude
Exits shadow 21:56:25 17° 201° (SSW) 1,993 5.2 -16.2°
Maximum altitude 22:00:48 80° 117° (ESE) 857 3.6 -16.4°
Drops below altitude 10° 22:06:28 10° 30° (NNE) 2,467 6.7 -16.7°
Sets 22:08:56 0° 30° (NNE) 3,406 7.6 -16.8°
